EHI
32 21 6 0 0 0 0 0 0 0 0 0 0 0 0 0 0 0 0 0 0 0 0 0 0 0 0 0 0 0 0 0 0 0 0 0 0 0 0 0 0 0 0 1 1 3 6 10 13
16 11 3 0 0 0 0 0 0 0 0 0 0 0 0 0 0 0 0 0 0 0 0 0 0 0 0 0 0 0 0 0 0 0 0 0 0 0 0 0 0 0 0 0 1 3 5 7 9
3 2 0 0 0 0 0 0 0 0 0 0 0 0 0 0 0 0 0 0 0 0 0 0 0 0 0 0 0 0 0 0 0 0 0 0 0 0 0 0 0 0 0 0 1 2 3 4 4
1 0 0 0 0 0 0 0 0 0 0 0 0 0 0 0 0 0 0 0 0 0 0 0 0 0 0 0 0 0 0 0 0 0 0 0 0 0 0 0 0 0 0 0 0 1 1 1 2
0 0 0 0 0 0 0 0 0 0 0 0 0 0 0 0 0 0 0 0 0 0 0 0 0 0 0 0 0 0 0 0 0 0 0 0 0 0 0 0 0 0 0 0 0 0 0 1 2
0 0 0 0 0 0 0 0 0 0 0 0 0 0 0 0 0 0 0 0 0 0 0 0 0 0 0 1 1 0 0 0 0 0 0 0 0 0 0 0 0 0 0 0 0 0 0 1 2
0 0 0 0 0 0 0 0 0 0 0 0 0 0 0 0 0 1 0 0 0 0 0 0 0 0 1 2 2 1 0 0 0 0 0 0 0 0 0 0 0 0 0 0 0 0 0 0 1
0 0 0 0 0 0 0 0 0 0 0 0 0 0 0 0 0 0 0 0 0 0 0 0 0 0 1 2 2 2 1 0 0 0 0 0 0 0 0 0 0 0 0 0 0 0 0 0 0
0 0 0 0 0 0 0 0 0 0 0 0 0 0 0 1 1 0 0 0 0 0 0 0 0 0 0 1 1 1 1 0 0 0 0 0 0 0 0 0 0 0 0 0 0 0 0 0 0
0 0 0 0 0 0 0 0 0 0 0 0 0 0 1 2 1 0 0 0 0 0 0 0 0 0 0 0 0 0 0 0 0 0 0 0 0 0 0 0 0 0 0 0 0 0 0 0 0
0 0 0 0 0 0 0 0 0 0 0 0 0 1 2 2 1 0 0 0 1 0 0 0 0 0 0 0 0 0 0 0 0 0 0 0 0 0 0 0 0 0 0 0 0 0 0 0 0
0 0 0 0 0 0 0 0 0 0 0 0 0 1 1 1 0 0 0 0 0 0 0 0 0 0 0 0 0 0 0 0 0 0 0 0 0 0 0 0 0 0 0 0 0 0 0 0 0
0 0 0 0 0 0 0 0 0 0 0 0 0 0 0 0 0 0 0 0 0 0 0 0 0 0 0 0 0 0 0 0 0 0 0 0 0 0 0 0 0 0 0 0 0 0 0 0 0
0 0 0 0 0 0 0 0 0 0 0 1 0 0 0 0 0 0 0 0 0 0 0 0 0 0 0 0 0 0 0 0 0 0 0 0 0 0 0 0 0 0 0 0 0 0 0 0 0
0 0 0 0 0 0 0 0 0 0 0 0 0 0 0 0 0 0 0 0 0 0 0 0 0 0 0 0 1 1 1 1 0 0 0 0 0 0 0 0 0 0 0 0 0 0 0 0 0
0 0 0 0 0 0 0 0 0 0 0 0 0 0 0 0 0 0 0 0 0 0 0 0 0 0 0 0 1 2 1 1 0 0 0 0 0 0 0 0 0 0 0 0 0 0 0 0 0
0 0 0 0 0 0 0 0 0 0 0 0 0 0 0 0 0 0 0 0 0 0 0 0 0 0 0 0 1 3 2 1 0 0 0 0 0 0 0 0 0 0 0 0 0 0 0 0 0
0 0 0 0 0 0 0 0 0 0 0 0 0 0 0 0 0 0 0 0 0 0 0 0 0 0 0 0 1 3 3 2 1 0 0 1 0 0 0 0 0 0 0 0 0 0 0 0 0
0 0 0 0 0 0 0 0 0 0 0 0 0 0 0 0 0 0 0 0 0 0 0 0 0 0 0 0 0 1 2 1 1 1 1 1 0 0 0 0 0 0 0 0 0 0 0 0 0
0 0 0 0 0 0 0 0 0 0 0 0 0 0 0 0 0 0 0 0 0 0 0 0 0 0 0 0 0 0 0 0 1 3 3 1 0 0 0 0 0 0 0 0 0 0 0 0 0
0 0 0 0 0 0 0 0 0 0 0 0 0 0 0 0 0 0 0 0 0 0 0 0 0 0 0 0 0 0 0 0 1 4 5 3 1 0 0 0 0 0 0 0 0 0 0 0 0
0 0 0 0 0 0 0 0 0 0 0 0 0 0 0 0 0 0 0 0 0 0 0 0 0 0 0 0 0 0 0 0 1 3 4 4 2 0 0 0 0 0 0 0 0 0 0 0 0
0 0 0 0 0 0 0 0 0 0 0 0 0 0 0 0 0 0 0 0 0 0 0 0 0 0 0 0 0 0 0 0 0 1 1 1 1 0 0 0 0 0 0 0 0 0 0 0 0
0 0 0 0 0 0 0 0 0 0 0 0 0 0 0 0 0 0 0 0 0 0 0 0 0 0 0 0 0 0 0 0 0 0 0 0 0 0 0 0 0 0 0 0 0 0 0 0 0
0 0 0 0 0 0 0 0 0 0 0 0 0 0 0 0 0 0 0 0 0 0 0 0 0 0 0 0 0 0 0 0 0 0 0 0 0 0 0 0 0 0 0 0 0 0 0 0 0
0 0 0 0 0 0 0 0 0 0 0 0 0 0 0 0 0 0 0 0 0 0 0 0 0 0 0 0 0 0 0 0 0 0 0 0 0 0 0 0 0 0 0 0 0 0 0 0 0
0 0 0 0 0 0 0 0 0 0 0 0 0 0 0 0 0 0 0 0 0 0 0 0 0 0 0 0 0 0 0 0 0 0 0 0 0 0 0 0 0 0 0 0 0 0 0 0 0
0 0 0 0 0 0 0 0 0 0 0 0 0 0 0 0 0 0 0 0 0 0 0 0 0 0 0 0 0 0 0 0 0 0 0 0 0 0 0 0 0 0 0 0 0 0 0 0 0
0 0 0 0 0 0 0 0 0 0 0 0 0 0 0 0 0 0 0 0 0 0 0 0 0 0 0 0 0 0 0 0 0 0 0 0 0 0 0 0 0 0 0 0 0 0 0 0 0
0 0 0 0 0 0 0 0 0 0 0 0 0 0 0 0 0 0 0 0 0 0 0 0 0 0 0 0 0 0 0 0 0 0 0 0 0 0 0 0 0 0 0 0 0 0 0 0 0
Wind_Speed
1 4 3 3 6 6 3 3 1 2 3 2 3 5 5 3 2 1 2 7 10 10 7 9 12 12 11 10 10 10 10 10 11 11 11 11 11 10 10 9 9 9 8 8 7 7 8 8 8
3 4 3 5 7 4 2 3 1 1 4 3 4 5 5 3 3 5 4 6 11 10 7 8 13 12 11 11 10 10 10 9 9 10 10 10 9 9 9 9 8 8 8 7 7 7 7 7 7
3 2 4 5 4 3 1 1 1 2 3 2 4 4 4 2 4 4 5 9 10 9 7 8 14 12 11 11 10 10 9 9 9 9 9 9 8 8 8 8 7 7 7 6 6 6 6 6 6
3 4 5 6 3 1 2 1 3 4 2 4 4 4 3 2 5 5 9 11 10 8 7 8 14 13 12 11 10 10 9 9 9 8 8 8 8 7 7 7 7 7 6 5 5 4 5 5 5
4 4 6 5 4 4 2 1 3 3 2 3 3 4 3 3 7 11 11 11 10 8 6 7 14 13 12 11 10 10 10 9 9 8 8 7 7 7 6 6 6 6 5 5 4 3 4 4 4
4 5 6 3 5 5 3 2 2 3 3 3 4 3 2 2 8 10 10 9 8 9 7 7 14 13 12 12 11 11 10 10 9 8 7 7 6 6 5 5 5 4 4 3 3 3 3 3 3
4 5 4 1 4 5 5 4 2 3 3 3 4 4 1 2 5 9 8 7 6 7 6 5 7 9 12 12 12 12 11 10 9 8 7 7 6 5 5 4 4 3 3 2 3 3 3 4 4
4 5 4 2 2 3 6 4 2 3 2 3 4 6 5 5 6 7 6 5 5 5 5 5 5 5 5 7 12 12 12 11 10 9 8 7 6 6 5 4 3 2 2 1 2 3 3 4 4
4 6 2 1 1 2 5 5 4 3 4 2 1 3 4 10 10 7 5 4 4 6 4 4 5 5 5 5 8 10 12 11 10 8 9 7 2 2 2 3 4 3 2 0 1 2 3 5 6
5 4 2 2 2 1 3 5 6 5 5 5 5 5 8 11 9 8 7 7 8 8 7 5 5 5 4 5 4 3 4 5 5 4 4 3 3 2 3 3 5 5 3 2 1 2 4 4 3
3 3 2 1 1 0 3 7 12 8 8 8 5 4 8 7 4 2 3 5 7 6 7 7 6 5 5 4 3 2 2 3 4 5 5 3 3 2 2 1 2 2 2 1 2 3 2 1 1
2 1 1 2 2 4 5 6 11 16 10 9 8 11 11 9 7 6 4 3 3 3 5 6 7 6 6 5 3 3 3 3 3 4 5 4 3 3 2 2 2 1 1 1 1 0 1 1 1
2 2 3 5 7 10 15 13 9 15 13 14 18 18 15 13 10 9 9 8 6 4 4 4 5 7 6 5 4 4 5 5 4 4 5 5 4 4 3 2 2 3 2 2 2 1 2 2 2
2 5 6 8 8 9 16 13 10 13 13 17 19 17 15 14 14 13 13 11 9 8 6 4 3 6 7 6 6 5 5 5 4 5 6 7 5 4 4 3 3 3 3 3 2 2 2 2 1
3 5 8 10 7 3 9 15 13 11 12 17 17 15 15 14 14 14 12 11 11 10 8 7 4 3 5 7 7 6 5 5 5 6 6 7 6 6 5 4 4 4 3 3 2 2 1 1 1
5 6 5 7 9 6 10 9 11 10 13 15 14 13 12 12 12 11 11 11 11 10 10 9 7 5 3 4 6 5 5 5 5 6 6 8 9 7 5 4 4 4 3 3 3 2 1 1 1
7 4 3 5 11 7 10 8 9 10 13 14 13 11 11 11 12 11 11 10 10 10 10 10 9 8 6 4 5 5 4 5 5 6 6 7 8 8 7 6 5 4 3 3 3 2 2 2 2
2 2 3 4 6 10 12 10 9 11 13 12 11 11 11 12 12 11 11 10 9 9 8 9 9 8 7 4 3 3 4 4 5 5 6 7 7 8 7 5 5 4 3 3 3 3 2 2 3
2 3 3 3 3 8 10 10 9 10 13 13 12 12 12 11 10 9 10 10 9 9 9 8 9 8 7 4 3 2 3 4 4 5 6 7 7 7 7 5 5 5 5 5 5 3 3 2 2
5 4 3 3 5 6 8 8 6 8 10 9 10 11 12 14 14 13 12 11 10 9 9 8 8 8 7 5 4 3 3 4 4 4 6 7 8 8 7 7 5 5 4 4 5 4 3 2 3
4 3 0 0 4 5 4 3 5 4 6 10 11 10 10 12 14 14 13 11 11 10 9 8 9 8 7 7 5 4 3 2 2 4 5 6 8 8 8 8 7 6 6 5 6 5 6 4 2
1 1 2 2 4 2 1 1 4 6 7 12 13 13 13 13 12 12 12 12 11 10 9 8 8 8 7 6 5 5 4 4 4 3 3 5 6 7 8 8 8 7 6 6 6 6 4 5 3
3 3 1 2 4 4 6 2 4 6 8 13 13 13 13 13 12 12 12 11 11 10 9 8 8 7 7 6 6 5 4 4 4 3 3 4 4 5 6 7 7 7 6 7 7 6 5 4 4
2 2 5 6 5 5 4 2 4 5 9 13 13 13 13 13 13 12 11 10 9 9 8 8 8 7 7 6 6 6 6 5 4 3 3 2 2 3 4 5 6 6 6 6 6 6 6 4 4
8 6 5 6 6 1 2 3 2 4 7 9 12 13 12 11 12 13 14 13 11 10 9 8 8 7 8 7 6 6 6 5 4 3 2 1 1 2 4 5 5 5 5 6 6 6 6 6 5
4 5 5 2 1 2 3 2 3 4 6 7 8 10 11 12 12 13 14 12 11 10 10 9 8 8 7 7 7 6 6 4 3 3 2 1 0 0 2 3 4 5 5 6 5 4 5 5 5
3 3 2 5 2 2 2 3 3 4 8 10 11 12 13 13 13 13 13 12 11 10 10 9 8 8 8 7 7 7 7 6 5 5 4 3 2 2 3 3 2 3 4 5 5 4 4 4 4
4 3 4 4 3 1 2 3 5 9 11 11 12 13 13 13 13 13 12 11 10 9 8 8 8 7 7 7 7 6 6 6 5 5 6 5 5 4 4 4 3 3 3 3 4 3 3 3 3
5 4 5 4 3 3 1 3 3 5 8 9 11 11 11 12 12 11 11 10 9 9 9 8 8 8 8 8 7 7 7 6 6 6 6 5 5 5 5 5 4 4 4 3 3 3 3 3 3
3 3 3 3 2 2 2 4 5 5 6 7 9 10 11 10 10 9 9 9 9 9 9 9 9 8 8 8 8 8 7 7 7 7 6 6 5 5 4 4 5 4 4 3 2 2 3 3 2
Wind_Direction
207 125 106 67 53 50 38 338 293 32 52 30 70 90 97 106 161 191 115 137 135 143 152 155 153 150 147 143 138 133 127 125 123 122 121 120 119 120 120 120 121 121 121 120 119 118 119 117 114
144 131 76 61 76 64 337 305 298 70 126 134 73 76 75 70 71 105 130 143 141 144 146 152 156 154 153 151 147 141 136 132 128 125 123 122 121 121 121 121 121 120 119 120 120 122 123 120 116
147 112 82 68 82 133 196 276 184 82 104 92 72 61 80 106 129 144 155 145 142 145 143 159 158 158 158 158 154 149 144 140 136 133 130 127 124 123 122 121 121 120 118 117 116 119 123 120 113
113 56 53 64 49 247 247 250 154 124 74 57 87 66 61 97 148 148 140 146 145 144 145 163 161 162 164 164 161 157 154 150 147 143 139 134 130 126 121 119 118 117 115 113 112 115 119 117 112
68 75 55 42 349 320 301 276 165 126 93 64 87 85 45 18 114 131 142 150 149 147 151 167 166 168 169 169 169 167 164 160 157 154 149 146 140 133 126 120 115 113 110 106 101 105 113 111 106
61 65 69 19 331 331 350 353 103 103 101 94 95 93 42 112 127 143 149 152 153 154 157 168 173 174 175 176 178 176 173 170 168 165 163 160 154 146 138 130 123 115 104 93 85 82 93 96 91
91 81 91 38 338 354 357 353 97 113 121 145 122 102 89 167 157 147 147 144 150 159 161 172 176 179 182 183 185 183 179 178 177 177 178 175 169 164 159 151 142 131 111 87 75 71 71 74 71
107 94 78 41 14 338 331 351 62 95 109 109 117 140 184 192 154 136 131 135 152 166 175 179 180 179 183 187 191 189 186 185 186 187 190 190 188 186 185 178 175 169 152 98 64 56 54 53 51
76 72 83 211 169 300 334 14 19 49 88 77 106 173 186 144 137 129 129 143 171 189 197 192 191 189 186 189 200 195 192 192 193 195 199 195 188 188 197 201 208 217 217 227 26 34 36 45 39
71 101 214 208 194 229 356 28 10 33 35 18 22 47 110 133 146 155 168 179 192 201 203 202 201 199 193 201 201 194 191 189 189 184 192 171 165 189 204 227 229 232 239 263 310 355 25 48 40
86 150 221 246 215 304 39 52 34 34 19 348 341 63 102 111 117 163 204 210 212 212 210 206 204 203 200 208 197 192 188 182 184 184 182 173 173 191 205 202 257 273 281 4 8 18 30 40 40
90 127 86 4 41 35 41 54 52 40 14 1 52 68 68 64 48 28 0 321 299 267 234 222 206 207 209 209 208 197 195 193 193 190 183 176 181 196 204 206 215 220 206 216 235 264 297 291 249
60 52 43 28 62 70 65 56 65 34 23 42 56 56 51 47 40 33 29 21 10 349 312 266 218 211 210 210 216 208 206 206 201 193 193 188 192 202 206 213 211 211 202 209 226 241 266 271 258
53 77 51 27 52 74 74 51 45 20 26 47 50 49 44 39 32 29 22 17 8 356 342 322 255 223 211 212 216 217 211 208 199 200 201 198 201 203 205 214 213 211 203 205 211 230 255 270 261
68 83 46 25 21 75 83 48 27 13 37 46 43 42 39 35 31 25 16 11 5 356 349 338 312 269 229 220 222 223 213 205 206 209 204 203 204 205 206 211 217 214 194 191 199 221 235 253 228
44 57 44 12 13 29 77 63 18 17 42 44 37 33 29 24 23 19 12 6 2 359 355 349 341 333 290 251 235 230 216 207 211 211 207 207 207 205 202 210 223 211 180 176 186 193 204 218 188
33 55 41 14 15 41 75 77 31 29 43 41 31 23 20 15 13 8 6 1 356 355 353 349 347 345 328 290 256 239 231 221 218 211 207 208 208 206 202 210 219 203 185 183 193 176 173 183 182
8 63 61 47 30 65 83 79 45 34 42 37 25 18 13 9 2 357 355 354 349 347 348 347 345 344 339 321 279 245 233 233 232 219 209 202 206 208 205 210 214 196 190 188 183 172 164 172 165
93 94 80 62 81 77 86 78 49 34 34 28 19 10 5 358 350 350 350 346 343 344 346 342 344 342 343 336 317 278 247 235 233 227 213 202 199 200 200 208 201 189 194 194 179 159 159 154 135
72 78 52 52 82 98 105 83 51 40 35 22 13 1 354 349 347 347 347 345 343 341 342 339 338 334 336 326 307 280 269 251 233 226 217 209 201 198 204 201 196 189 189 183 172 158 152 158 153
58 95 306 198 78 87 124 78 22 7 18 11 9 356 350 348 341 338 339 339 337 337 337 335 330 326 327 326 314 301 281 271 247 226 219 217 210 199 198 197 190 185 182 186 182 176 164 167 170
344 329 278 215 126 72 360 163 7 333 350 1 357 353 346 343 338 336 334 335 333 330 329 327 324 321 324 327 324 315 297 278 266 256 236 225 214 201 195 188 181 180 181 182 185 182 176 157 166
298 328 14 108 119 74 22 64 340 337 350 346 344 344 342 339 337 335 334 329 327 325 326 326 324 322 323 326 324 315 304 287 282 272 247 236 216 199 190 184 178 179 179 178 177 174 180 174 169
346 57 60 54 70 56 344 38 358 347 333 330 334 337 338 338 337 336 334 330 327 326 328 331 330 326 329 331 334 330 322 311 299 283 257 236 207 189 185 182 183 181 174 175 177 174 179 186 182
35 63 40 22 33 14 334 65 346 317 325 325 328 331 333 336 338 338 339 339 337 334 334 335 337 335 337 340 344 341 337 328 311 298 283 262 211 189 186 185 182 177 170 172 170 175 180 182 183
33 86 119 141 170 305 8 21 287 302 319 328 333 332 335 341 339 339 340 338 337 336 339 344 345 342 344 350 349 351 351 349 350 355 355 358 13 152 162 172 173 175 173 172 170 174 178 174 182
56 60 128 120 109 59 355 336 315 336 344 346 344 343 341 340 339 339 339 341 341 342 345 346 347 352 354 355 356 2 3 8 15 18 23 32 41 66 87 105 127 149 159 155 154 157 163 173 187
88 107 75 85 109 46 349 349 319 324 333 337 337 336 335 336 336 336 337 338 344 345 346 352 360 0 358 2 5 9 10 15 21 30 35 38 42 54 69 74 86 105 113 133 144 143 156 160 173
20 48 75 84 105 126 10 303 260 285 306 319 321 324 326 329 330 331 335 339 347 355 359 3 6 6 8 9 8 15 17 20 27 33 34 38 44 51 63 68 73 84 95 106 126 140 155 161 171
94 78 116 119 93 107 141 274 278 281 295 304 311 317 321 323 325 329 337 346 354 359 0 5 8 10 9 9 16 20 23 26 30 32 33 37 43 46 59 68 69 71 77 85 105 123 136 139 158